Regional Weather Roundup
Issued by NWS

Home | Current Version | Previous Version | Graphics & Text | Print | Product List | Glossary On
Versions: 1 2 3 4 5 6 7 8 9 10 11 12 13 14 15 16 17 18 19 20 21 22 23 24 25 26 27 28 29 30 31 32 33 34 35 36 37 38 39 40 41 42 43 44 45 46 47 48 49 50
000
ASUS45 KBOU 291610
RWRCO

WEATHER ROUNDUP FOR COLORADO
NATIONAL WEATHER SERVICE PUEBLO CO
1000 AM MDT WED JUL 29 2015

NOTE: "FAIR" INDICATES FEW OR NO CLOUDS BELOW 12000 FEET WITH NO
SIGNIFICANT WEATHER AND/OR OBSTRUCTIONS TO VISIBILITY.

COZ001>005-013-030-031-291700-
...NORTHWEST COLORADO...

CITY           SKY/WX    TMP DP  RH WIND       PRES   REMARKS
CRAIG          SUNNY     64  30  27 NW5       30.39F
HAYDEN         SUNNY     63  32  31 W3        30.40S
MEEKER         SUNNY     62  35  36 VRB3      30.39F
MOUNT WERNER   NOT AVBL
STEAMBOAT SPGS FAIR      59  35  40 CALM      30.41F
WALDEN         FAIR      59  32  36 NW3       30.46S
$$

COZ006>008-011-291700-
...WEST CENTRAL VALLEYS...

CITY           SKY/WX    TMP DP  RH WIND       PRES   REMARKS
GRAND JUNCTION SUNNY     74  35  24 S10       30.27R
MONTROSE       SUNNY     74  34  23 W3        30.34S
EAGLE          SUNNY     64  36  34 CALM      30.42
RIFLE          SUNNY     69  36  29 CALM      30.33F
DELTA          NOT AVBL
NUCLA          FAIR      70  37  30 N6        30.35S
$$

COZ017>023-064>068-291700-
...SOUTHWEST COLORADO...

CITY           SKY/WX    TMP DP  RH WIND       PRES   REMARKS
DURANGO        SUNNY     72  48  42 E8        30.37S
CORTEZ         SUNNY     76  41  28 SW5       30.30R
PAGOSA SPRINGS FAIR      66  47  49 CALM      30.46S
TELLURIDE      SUNNY     67  33  28 CALM      30.55S
WOLF CREEK PAS NOT AVBL
$$

COZ009-010-012-014-032>034-037-058>063-291700-
...CENTRAL COLORADO...

CITY           SKY/WX    TMP DP  RH WIND       PRES   REMARKS
ASPEN          SUNNY     65  38  36 N5        30.45S
BUENA VISTA    FAIR      64  41  42 NE6       30.48F
COPPER MTN     SUNNY     55  28  35 W15       30.74S
BERTHOUD PASS  FAIR      48  37  66 NW9G21    30.78S
COTTONWOOD PAS SUNNY     61  41  48 E5        30.60S
GUNNISON       SUNNY     61  36  39 W3        30.48F
KREMMLING      SUNNY     61  32  33 CALM      30.46F
LEADVILLE      SUNNY     57  38  48 N3        30.59F
MONARCH PASS   MOSUNNY   54  41  62 W7        30.83S
SALIDA         FAIR      68  44  41 CALM      30.52F
NIWOT RIDGE    NOT AVBL
SUNLIGHT       SUNNY     59  34  38 CALM      30.68S
WILKERSON PASS SUNNY     55  41  58 CALM      30.72R
$$

COZ069>075-291700-
...SAN LUIS VALLEY/SANGRE DE CRISTO MOUNTAINS...

CITY           SKY/WX    TMP DP  RH WIND       PRES   REMARKS
ALAMOSA        MOSUNNY   67  48  50 S7        30.43S
LA VETA PASS   MOSUNNY   54  45  71 MISG      30.63S
SAGUACHE       SUNNY     68  48  49 S5        30.46S
$$

COZ035-036-038>040-291700-
...NORTHERN COLORADO FRONT RANGE...

CITY           SKY/WX    TMP DP  RH WIND       PRES   REMARKS
DENVER INTL AP MOSUNNY   75  47  36 SW13      30.32F
DMNS CITY PARK NOT AVBL
AURORA         MOSUNNY   73  50  43 S9        30.34F
FRONT RANGE AP MOSUNNY   73  46  38 S9        30.34F
ERIE MUNI ARPT FAIR      69  45  41 CALM      30.32S
BOULDER MUN AP FAIR      68  45  42 NE3       30.32F
CENTENNIAL     MOSUNNY   72  48  42 CALM      30.35S
BROOMFIELD     MOSUNNY   70  45  40 CALM      30.35S
LOVELAND       SUNNY     68  45  42 N5        30.32F
LONGMONT       FAIR      73  45  37 NE7       30.33F
$$

COZ041-046-047-076>085-087-088-291700-
...PIKES PEAK/PALMER DIVIDE AND SOUTHERN FOOTHILLS...

CITY           SKY/WX    TMP DP  RH WIND       PRES   REMARKS
COLO. SPRINGS  MOSUNNY   68  48  48 VRB7      30.41S
A. F. ACADEMY  MOSUNNY   68  49  49 S9        30.41S
ELLICOTT       FAIR     N/A N/A N/A SE14      30.41R
FALCON         FAIR      66  47  50 SE5       30.45R
FORT CARSON    MOSUNNY   71  51  49 SE9       30.38R
LIMON          PTSUNNY   68  49  50 SE15      30.38R
MONUMENT HILL  MOSUNNY   68  46  45 S10       30.43S
TRINIDAD       MOSUNNY   73  50  44 N8        30.38R
$$

COZ042>045-048>051-090-091-291700-
...NORTHEAST COLORADO...

CITY           SKY/WX    TMP DP  RH WIND       PRES   REMARKS
GREELEY ARPT   SUNNY     75  52  43 SE9       30.30F
AKRON          MOSUNNY   73  47  39 SE14      30.32F
BURLINGTON     CLOUDY    67  52  58 SE13      30.35R
WRAY           FAIR      69  51  51 E9        30.31R
STERLING       NOT AVBL
HOLYOKE        FAIR      73  52  46 S10       30.31S
FORT MORGAN    FAIR      74  50  43 SE6       30.32F
$$

COZ086-089-092>099-291700-
...SOUTHEAST COLORADO...

CITY           SKY/WX    TMP DP  RH WIND       PRES   REMARKS
PUEBLO         MOSUNNY   73  53  49 E7        30.32R
LA JUNTA       PTSUNNY   75  50  41 E21       30.31R
LAMAR          MOSUNNY   76  50  40 E13       30.29S
SPRINGFIELD      N/A     69  51  52 E12G22    30.34R
$$



USA.gov is the U.S. government's official web portal to all federal, state and local government web resources and services.